1507482000.17,34986,10.5,72946.8,-3.71,-4.49,-4.61,0,*5F
1507482001.37,34987,10.5,72956.0,-3.69,-4.49,-4.53,0,*56
1507482002.59,34988,10.5,72956.0,-3.71,-4.49,-4.53,0,*50
1507482003.79,34989,10.5,72956.3,-3.69,-4.49,-4.53,0,*58
1507482004.99,34990,10.5,72962.3,-3.69,-4.49,-4.53,0,*50
1507482006.18,34991,10.5,72958.3,-3.69,-4.49,-4.53,0,*51
1507482007.38,34992,10.5,72960.3,-3.69,-4.53,-4.61,0,*58
1507482008.62,34993,10.5,72960.0,-3.67,-4.57,-4.57,0,*56
1507482009.82,34994,10.5,72964.8,-3.69,-4.53,-4.61,0,*5E
1507482011.01,34995,10.5,72964.5,-3.69,-4.53,-4.61,0,*5F
1507482012.23,34996,10.5,72968.0,-3.71,-4.53,-4.53,0,*54
1507482013.43,34997,10.5,72970.8,-3.69,-4.53,-4.61,0,*5D
1507482014.66,34998,10.5,72968.0,-3.67,-4.49,-4.57,0,*52
1507482015.86,34999,10.5,72972.5,-3.69,-4.53,-4.53,0,*52
1507482017.06,35000,10.5,72980.5,-3.69,-4.53,-4.53,0,*5A
1507482018.26,35001,10.5,72974.5,-3.69,-4.53,-4.53,0,*5B
1507482019.46,35002,10.5,72968.3,-3.69,-4.53,-4.61,0,*59
1507482020.66,35003,10.5,72974.0,-3.69,-4.53,-4.61,0,*58
1507482021.86,35004,10.5,72976.5,-3.69,-4.53,-4.61,0,*5F
1507482023.08,35005,10.5,72976.5,-3.71,-4.61,-4.61,0,*56
1507482024.3,35006,10.5,72970.0,-3.71,-4.53,-4.61,0,*54
1507482025.53,35007,10.5,72968.5,-3.67,-4.49,-4.57,0,*5C
1507482026.72,35008,10.5,72968.0,-3.69,-4.53,-4.61,0,*53
1507482027.92,35009,10.5,72968.8,-3.69,-4.53,-4.61,0,*52
1507482029.12,35010,10.5,72960.3,-3.69,-4.53,-4.65,0,*5E
1507482030.35,35011,10.5,72966.8,-3.69,-4.61,-4.73,0,*59
1507482031.59,35012,10.5,72966.5,-3.71,-4.65,-4.73,0,*57
1507482032.86,35013,10.5,72968.0,-3.71,-4.73,-4.73,0,*51
1507482034.13,35014,10.5,72966.0,-3.71,-4.73,-4.85,0,*5F
1507482035.37,35015,10.5,72970.8,-3.71,-4.65,-4.77,0,*54
1507482036.62,35016,10.5,72968.3,-3.71,-4.65,-4.73,0,*53
1507482037.86,35017,10.5,72970.0,-3.71,-4.65,-4.77,0,*56
1507482039.1,35018,10.5,72970.5,-3.69,-4.73,-4.77,0,*57
1507482040.35,35019,10.5,72964.0,-3.71,-4.65,-4.77,0,*58
1507482041.61,35020,10.5,72968.0,-3.71,-4.73,-4.73,0,*51
1507482042.88,35021,10.5,72962.0,-3.71,-4.73,-4.77,0,*54
1507482044.12,35022,10.5,72960.5,-3.71,-4.65,-4.77,0,*50
1507482045.39,35023,10.5,72962.3,-3.71,-4.73,-4.77,0,*56
1507482046.66,35024,10.5,72962.0,-3.71,-4.73,-4.85,0,*5C
1507482047.92,35025,10.5,72962.5,-3.71,-4.73,-4.77,0,*50
1507482049.19,35026,10.5,72960.0,-3.71,-4.73,-4.73,0,*57
1507482050.46,35027,10.5,72964.5,-3.71,-4.73,-4.85,0,*5F
1507482051.72,35028,10.5,72964.5,-3.71,-4.73,-4.85,0,*50
1507482052.99,35029,10.5,72960.8,-3.71,-4.73,-4.85,0,*51
1507482054.26,35030,10.5,72966.5,-3.71,-4.85,-4.85,0,*50
1507482055.53,35031,10.5,72966.0,-3.73,-4.77,-4.81,0,*5A
1507482056.8,35032,10.5,72966.5,-3.71,-4.73,-4.85,0,*5B
1507482058.06,35033,10.5,72972.5,-3.71,-4.77,-4.77,0,*53
1507482059.32,35034,10.5,72970.5,-3.71,-4.73,-4.77,0,*50
1507482060.6,35035,10.5,72970.5,-3.73,-4.69,-4.69,0,*57
1507482061.86,35036,10.5,72966.8,-3.73,-4.69,-4.77,0,*5B
1507482063.12,35037,10.5,72964.0,-3.73,-4.65,-4.69,0,*59
1507482064.39,35038,10.5,72960.0,-3.73,-4.69,-4.69,0,*5A
1507482065.65,35039,10.5,72954.5,-3.73,-4.69,-4.77,0,*54
1507482066.92,35040,10.5,72946.5,-3.73,-4.69,-4.77,0,*5A
1507482068.17,35041,10.5,72946.0,-3.73,-4.65,-4.77,0,*57
1507482069.44,35042,10.5,72942.0,-3.73,-4.77,-4.77,0,*57
1507482070.7,35043,10.5,72948.5,-3.73,-4.69,-4.77,0,*59
1507482071.97,35044,10.5,72956.8,-3.73,-4.69,-4.81,0,*57
1507482073.25,35045,10.5,72946.0,-3.73,-4.69,-4.69,0,*50
1507482074.51,35046,10.5,72950.3,-3.73,-4.77,-4.77,0,*53
1507482075.76,35047,10.5,72946.3,-3.73,-4.65,-4.77,0,*51
1507482077.01,35048,10.5,72944.0,-3.73,-4.65,-4.77,0,*5E
1507482078.28,35049,10.5,72942.8,-3.73,-4.69,-4.81,0,*5A
1507482079.55,35050,10.5,72942.0,-3.71,-4.73,-4.77,0,*52
1507482080.82,35051,10.5,72950.3,-3.73,-4.69,-4.81,0,*53
1507482082.09,35052,10.5,72946.5,-3.73,-4.69,-4.77,0,*59
1507482083.36,35053,10.5,72952.5,-3.73,-4.77,-4.69,0,*58
1507482084.62,35054,10.5,72946.3,-3.73,-4.69,-4.77,0,*5F
1507482085.86,35055,10.5,72948.8,-3.75,-4.69,-4.77,0,*58
1507482087.1,35056,10.5,72946.5,-3.75,-4.69,-4.89,0,*5A
1507482088.37,35057,10.5,72952.3,-3.73,-4.69,-4.89,0,*5D
1507482089.62,35058,10.5,72950.8,-3.75,-4.81,-4.89,0,*52
1507482090.9,35059,10.5,72954.3,-3.73,-4.81,-4.89,0,*55
1507482092.17,35060,10.5,72950.0,-3.73,-4.81,-4.81,0,*57
1507482093.41,35061,10.5,72936.0,-3.75,-4.77,-4.89,0,*51
1507482094.68,35062,10.5,72948.0,-3.73,-4.81,-4.81,0,*55
1507482095.96,35063,10.5,72946.5,-3.73,-4.81,-4.89,0,*5C
1507482097.2,35064,10.5,72942.8,-3.75,-4.77,-4.89,0,*54
1507482098.44,35065,10.5,72946.0,-3.75,-4.69,-4.89,0,*5A
1507482099.71,35066,10.5,72942.8,-3.73,-4.77,-4.81,0,*58
1507482100.95,35067,10.44,72934.8,-3.75,-4.69,-4.77,0,*59
1507482102.19,35068,10.5,72950.5,-3.75,-4.77,-4.81,0,*50
1507482103.43,35069,10.5,72950.5,-3.75,-4.69,-4.81,0,*5E
1507482104.7,35070,10.5,72948.5,-3.73,-4.77,-4.81,0,*5F
1507482105.95,35071,10.5,72936.5,-3.75,-4.77,-4.89,0,*50
1507482107.19,35072,10.5,72942.8,-3.75,-4.77,-4.81,0,*5B
1507482108.43,35073,10.5,72950.0,-3.75,-4.69,-4.81,0,*55
1507482109.67,35074,10.44,72946.0,-3.75,-4.69,-4.69,0,*54
1507482110.94,35075,10.5,72946.8,-3.73,-4.69,-4.77,0,*5C
1507482112.18,35076,10.5,72954.0,-3.75,-4.77,-4.89,0,*57
1507482113.42,35077,10.5,72956.0,-3.75,-4.77,-4.81,0,*5E
1507482114.66,35078,10.5,72952.0,-3.75,-4.69,-4.81,0,*5E
1507482115.9,35079,10.44,72946.3,-3.75,-4.77,-4.77,0,*59
1507482117.14,35080,10.44,72938.0,-3.75,-4.69,-4.69,0,*5F
1507482118.36,35081,10.5,72930.8,-3.75,-4.65,-4.69,0,*52
1507482119.6,35082,10.5,72932.8,-3.75,-4.69,-4.77,0,*52
1507482120.84,35083,10.5,72932.5,-3.75,-4.77,-4.77,0,*5C
1507482122.07,35084,10.5,72936.3,-3.75,-4.69,-4.77,0,*54
1507482123.32,35085,10.5,72944.0,-3.75,-4.69,-4.89,0,*54
1507482124.55,35086,10.5,72948.8,-3.75,-4.77,-4.77,0,*59
1507482125.79,35087,10.5,72948.8,-3.75,-4.69,-4.77,0,*57
1507482127.03,35088,10.44,72944.8,-3.75,-4.69,-4.69,0,*57
1507482128.25,35089,10.5,72946.3,-3.75,-4.65,-4.77,0,*55
1507482129.47,35090,10.5,72936.5,-3.75,-4.65,-4.77,0,*5D
1507482130.72,35091,10.5,72952.5,-3.75,-4.69,-4.89,0,*51
1507482131.99,35092,10.5,72948.8,-3.73,-4.69,-4.81,0,*5C
1507482133.23,35093,10.5,72954.3,-3.75,-4.69,-4.69,0,*5D
1507482134.5,35094,10.5,72952.3,-3.77,-4.73,-4.81,0,*55
1507482135.74,35095,10.44,72946.5,-3.75,-4.69,-4.69,0,*5B
1507482137.0,35096,10.5,72956.0,-3.77,-4.69,-4.73,0,*51
1507482138.26,35097,10.5,72954.5,-3.77,-4.69,-4.81,0,*5D
1507482139.53,35098,10.5,72956.0,-3.77,-4.69,-4.81,0,*52
1507482140.79,35099,10.5,72956.3,-3.77,-4.69,-4.73,0,*5E
1507482142.06,35100,10.5,72960.5,-3.77,-4.69,-4.81,0,*52
1507482143.28,35101,10.5,72954.5,-3.75,-4.57,-4.69,0,*5A
1507482144.5,35102,10.5,72960.8,-3.75,-4.65,-4.77,0,*57
1507482145.72,35103,10.5,72962.5,-3.75,-4.65,-4.77,0,*56
1507482146.96,35104,10.5,72960.3,-3.75,-4.69,-4.77,0,*5D
1507482148.2,35105,10.5,72964.0,-3.75,-4.69,-4.77,0,*5C
1507482149.44,35106,10.5,72956.3,-3.75,-4.69,-4.69,0,*50
1507482150.68,35107,10.5,72958.8,-3.79,-4.69,-4.81,0,*5B
1507482151.95,35108,10.5,72966.3,-3.77,-4.73,-4.85,0,*55
1507482153.22,35109,10.5,72946.8,-3.73,-4.69,-4.81,0,*5F
1507482154.49,35110,10.5,72952.5,-3.77,-4.73,-4.85,0,*5C
1507482155.73,35111,10.5,72964.3,-3.79,-4.81,-4.81,0,*5A
1507482157.0,35112,10.5,72962.5,-3.77,-4.73,-4.81,0,*5A
1507482158.27,35113,10.5,72970.3,-3.77,-4.73,-4.81,0,*5B
1507482159.54,35114,10.5,72974.5,-3.77,-4.73,-4.81,0,*5C
1507482160.77,35115,10.5,72974.5,-3.79,-4.69,-4.73,0,*55
1507482162.04,35116,10.5,72978.5,-3.77,-4.69,-4.81,0,*55
1507482163.3,35117,10.5,72984.8,-3.77,-4.69,-4.69,0,*52
1507482164.57,35118,10.5,72946.5,-3.77,-4.81,-4.81,0,*5D
1507482165.83,35119,10.5,72948.8,-3.77,-4.69,-4.73,0,*57
1507482167.08,35120,10.5,72958.5,-3.77,-4.61,-4.69,0,*5E
1507482168.33,35121,10.5,72960.3,-3.77,-4.61,-4.69,0,*5F
1507482169.55,35122,10.5,72972.0,-3.77,-4.61,-4.61,0,*54
1507482170.79,35123,10.5,72968.5,-3.77,-4.61,-4.69,0,*5D
1507482172.04,35124,10.5,72972.3,-3.77,-4.61,-4.69,0,*5A
1507482173.29,35125,10.44,72972.5,-3.77,-4.61,-4.69,0,*5B
1507482174.53,35126,10.5,72978.3,-3.79,-4.69,-4.73,0,*55
1507482175.77,35127,10.5,72972.5,-3.77,-4.61,-4.81,0,*5F
1507482177.02,35128,10.5,72972.5,-3.77,-4.61,-4.73,0,*5D
1507482178.26,35129,10.5,72978.8,-3.79,-4.73,-4.85,0,*58
1507482179.48,35130,10.5,72974.5,-3.75,-4.65,-4.81,0,*5F
1507482180.72,35131,10.5,72974.8,-3.75,-4.69,-4.69,0,*54
1507482181.99,35132,10.44,72964.8,-3.77,-4.69,-4.73,0,*5E
1507482183.23,35133,10.5,72966.3,-3.79,-4.69,-4.73,0,*51
1507482184.47,35134,10.5,72966.8,-3.77,-4.61,-4.73,0,*50
1507482185.74,35135,10.44,72962.0,-3.77,-4.69,-4.81,0,*54
1507482187.0,35136,10.44,72962.0,-3.77,-4.69,-4.73,0,*5A
1507482188.26,35137,10.44,72960.8,-3.77,-4.69,-4.81,0,*56
1507482189.53,35138,10.5,72962.5,-3.77,-4.73,-4.81,0,*52
1507482190.8,35139,10.44,72960.5,-3.77,-4.81,-4.81,0,*5E
1507482192.07,35140,10.5,72964.5,-3.73,-4.77,-4.81,0,*5D
1507482193.33,35141,10.5,72954.5,-3.77,-4.73,-4.93,0,*5F
1507482194.6,35142,10.44,72950.0,-3.77,-4.81,-4.81,0,*52
1507482195.87,35143,10.5,72952.3,-3.77,-4.73,-4.85,0,*5A
1507482197.14,35144,10.44,72940.3,-3.77,-4.73,-4.81,0,*59
1507482198.4,35145,10.5,72952.8,-3.77,-4.73,-4.73,0,*55
1507482199.65,35146,10.5,72952.8,-3.79,-4.73,-4.81,0,*55
1507482200.89,35147,10.44,72950.0,-3.77,-4.61,-4.73,0,*54
1507482202.15,35148,10.5,72948.3,-3.77,-4.69,-4.73,0,*53
1507482203.41,35149,10.44,72948.8,-3.77,-4.69,-4.73,0,*52
1507482204.68,35150,10.5,72954.3,-3.77,-4.69,-4.73,0,*5A
1507482205.92,35151,10.44,72956.0,-3.79,-4.69,-4.69,0,*5E
1507482207.11,35152,10.5,72958.3,-3.79,-4.61,-4.61,0,*5D
1507482208.34,35153,10.44,72954.5,-3.77,-4.61,-4.61,0,*52
1507482209.56,35154,10.5,72962.8,-3.77,-4.61,-4.61,0,*55
1507482210.8,35155,10.5,72964.5,-3.77,-4.61,-4.69,0,*5C
1507482212.03,35156,10.44,72966.0,-3.77,-4.61,-4.61,0,*57
1507482213.25,35157,10.5,72968.5,-3.77,-4.61,-4.61,0,*56
1507482214.47,35158,10.44,72970.8,-3.77,-4.53,-4.61,0,*58
1507482215.69,35159,10.5,72972.3,-3.77,-4.57,-4.61,0,*5D
1507482216.91,35160,10.5,72974.3,-3.77,-4.53,-4.61,0,*53
1507482218.14,35161,10.44,72974.5,-3.77,-4.57,-4.61,0,*56
1507482219.36,35162,10.44,72976.8,-3.77,-4.57,-4.61,0,*55
1507482220.57,35163,10.5,72978.3,-3.79,-4.57,-4.61,0,*5A
1507482221.81,35164,10.5,72978.0,-3.77,-4.57,-4.69,0,*5B
1507482223.04,35165,10.5,72980.8,-3.77,-4.57,-4.61,0,*52
1507482224.29,35166,10.44,72976.3,-3.77,-4.57,-4.69,0,*59
1507482225.52,35167,10.5,72982.3,-3.77,-4.57,-4.61,0,*50
1507482226.77,35168,10.5,72982.3,-3.77,-4.57,-4.69,0,*57
1507482227.99,35169,10.5,72980.3,-3.77,-4.61,-4.61,0,*5B
1507482229.21,35170,10.5,72982.5,-3.77,-4.61,-4.61,0,*53
1507482230.46,35171,10.44,72976.5,-3.77,-4.61,-4.69,0,*5A
1507482231.68,35172,10.5,72976.5,-3.77,-4.61,-4.61,0,*51
1507482232.9,35173,10.44,72978.5,-3.79,-4.61,-4.73,0,*5D
1507482234.12,35174,10.5,72982.0,-3.77,-4.61,-4.61,0,*57
1507482235.32,35175,10.5,72976.5,-3.79,-4.61,-4.61,0,*58
1507482236.54,35176,10.44,72974.5,-3.77,-4.57,-4.61,0,*50
1507482237.77,35177,10.5,72972.3,-3.77,-4.57,-4.61,0,*51
1507482238.99,35178,10.5,72978.3,-3.77,-4.53,-4.61,0,*5A
1507482240.18,35179,10.5,72976.0,-3.75,-4.53,-4.57,0,*5C
1507482241.38,35180,10.5,72986.0,-3.75,-4.53,-4.53,0,*5E
1507482242.58,35181,10.5,72978.8,-3.75,-4.49,-4.53,0,*54
1507482243.77,35182,10.5,72972.5,-3.75,-4.53,-4.53,0,*5C
1507482244.97,35183,10.5,72964.0,-3.75,-4.53,-4.57,0,*59
1507482246.17,35184,10.5,72956.0,-3.75,-4.53,-4.57,0,*5E
1507482247.42,35185,10.5,72970.5,-3.77,-4.57,-4.69,0,*54
1507482248.64,35186,10.5,72978.0,-3.77,-4.57,-4.61,0,*5F
1507482249.87,35187,10.44,72972.8,-3.77,-4.57,-4.61,0,*5E
1507482251.06,35188,10.5,72968.8,-3.75,-4.53,-4.65,0,*53
1507482252.26,35189,10.5,72972.3,-3.75,-4.53,-4.57,0,*53
1507482253.51,35190,10.5,72972.3,-3.77,-4.57,-4.69,0,*50
1507482254.76,35191,10.5,72974.8,-3.77,-4.61,-4.69,0,*54
1507482255.96,35192,10.5,72978.8,-3.75,-4.57,-4.57,0,*5D
1507482257.16,35193,10.44,72968.8,-3.75,-4.57,-4.65,0,*5D
1507482258.36,35194,10.5,72974.0,-3.75,-4.65,-4.65,0,*5B
1507482259.59,35195,10.5,72974.5,-3.75,-4.57,-4.69,0,*57
1507482260.85,35196,10.5,72974.5,-3.77,-4.69,-4.73,0,*50
1507482262.11,35197,10.5,72976.3,-3.77,-4.69,-4.73,0,*51
1507482263.38,35198,10.5,72978.8,-3.77,-4.69,-4.81,0,*53
1507482264.62,35199,10.44,72970.8,-3.77,-4.61,-4.73,0,*57
1507482265.84,35200,10.44,72968.3,-3.79,-4.61,-4.73,0,*5A
1507482267.09,35201,10.44,72972.5,-3.77,-4.61,-4.81,0,*58
1507482268.35,35202,10.5,72972.0,-3.77,-4.69,-4.81,0,*53
1507482269.62,35203,10.5,72974.0,-3.77,-4.81,-4.85,0,*50
1507482270.86,35204,10.44,72972.3,-3.75,-4.69,-4.69,0,*51
1507482272.1,35205,10.5,72974.0,-3.79,-4.73,-4.81,0,*51
1507482273.37,35206,10.5,72972.0,-3.77,-4.73,-4.81,0,*5C
1507482274.6,35207,10.5,72976.8,-3.79,-4.61,-4.81,0,*50
1507482275.86,35208,10.5,72976.3,-3.77,-4.69,-4.81,0,*59
1507482277.11,35209,10.44,72968.8,-3.77,-4.61,-4.73,0,*5D
1507482278.33,35210,10.44,72976.3,-3.79,-4.61,-4.69,0,*50
1507482279.57,35211,10.5,72978.3,-3.77,-4.61,-4.69,0,*5F
1507482280.79,35212,10.44,72978.5,-3.77,-4.61,-4.61,0,*54
1507482282.04,35213,10.5,72976.5,-3.77,-4.61,-4.69,0,*5D
1507482283.29,35214,10.44,72972.3,-3.77,-4.61,-4.69,0,*5A
1507482284.55,35215,10.44,72976.3,-3.77,-4.69,-4.69,0,*53
1507482285.8,35216,10.44,72978.0,-3.77,-4.61,-4.69,0,*58
1507482287.06,35217,10.44,72972.8,-3.77,-4.69,-4.73,0,*5A
1507482288.3,35218,10.5,72972.8,-3.79,-4.69,-4.73,0,*5B
1507482289.57,35219,10.44,72976.3,-3.77,-4.73,-4.81,0,*52
1507482290.83,35220,10.5,72980.3,-3.77,-4.73,-4.81,0,*58
1507482292.1,35221,10.5,72978.0,-3.77,-4.73,-4.73,0,*54
1507482293.34,35222,10.44,72984.3,-3.79,-4.73,-4.81,0,*54
1507482294.61,35223,10.44,72978.5,-3.77,-4.69,-4.81,0,*50
1507482295.87,35224,10.44,72976.3,-3.77,-4.69,-4.81,0,*57
1507482297.14,35225,10.5,72980.3,-3.77,-4.73,-4.73,0,*50
1507482298.38,35226,10.5,72978.0,-3.79,-4.69,-4.81,0,*5B
1507482299.65,35227,10.5,72980.8,-3.77,-4.69,-4.81,0,*54
1507482300.91,35228,10.44,72970.5,-3.77,-4.69,-4.73,0,*56
1507482302.17,35229,10.44,72970.0,-3.77,-4.69,-4.73,0,*57
1507482303.43,35230,10.44,72974.3,-3.77,-4.81,-4.73,0,*59
1507482304.68,35231,10.5,72974.5,-3.79,-4.73,-4.85,0,*52
1507482305.95,35232,10.44,72970.0,-3.77,-4.81,-4.85,0,*52
1507482307.21,35233,10.5,72972.3,-3.77,-4.73,-4.81,0,*5A
1507482308.48,35234,10.5,72970.0,-3.77,-4.73,-4.81,0,*5D
1507482309.75,35235,10.5,72962.3,-3.77,-4.73,-4.81,0,*5C
1507482310.99,35236,10.5,72960.5,-3.79,-4.69,-4.73,0,*57
1507482312.23,35237,10.5,72970.0,-3.79,-4.81,-4.81,0,*5D
1507482313.48,35238,10.5,72962.8,-3.79,-4.73,-4.81,0,*5F
1507482314.72,35239,10.44,72960.5,-3.79,-4.73,-4.81,0,*5E
1507482315.98,35240,10.44,72956.0,-3.77,-4.69,-4.73,0,*58
1507482317.2,35241,10.5,72962.3,-3.79,-4.61,-4.81,0,*52
1507482318.45,35242,10.44,72948.8,-3.77,-4.61,-4.81,0,*5F
1507482319.65,35243,10.44,72952.0,-3.79,-4.61,-4.61,0,*5E
1507482320.87,35244,10.44,72952.3,-3.79,-4.61,-4.69,0,*51
1507482322.11,35245,10.44,72944.0,-3.79,-4.69,-4.69,0,*58
1507482323.35,35246,10.5,72950.3,-3.79,-4.69,-4.73,0,*50
1507482324.57,35247,10.5,72948.3,-3.79,-4.61,-4.69,0,*52
1507482325.79,35248,10.44,72954.3,-3.77,-4.61,-4.61,0,*5B
1507482327.02,35249,10.5,72962.0,-3.79,-4.61,-4.69,0,*5C
1507482328.24,35250,10.44,72962.0,-3.79,-4.61,-4.69,0,*54
1507482329.48,35251,10.44,72952.3,-3.77,-4.61,-4.69,0,*5B
1507482330.68,35252,10.44,72950.0,-3.79,-4.61,-4.61,0,*5E
1507482331.88,35253,10.44,72960.3,-3.79,-4.61,-4.61,0,*5F
1507482333.12,35254,10.5,72958.3,-3.77,-4.69,-4.61,0,*5E
1507482334.37,35255,10.44,72954.3,-3.77,-4.61,-4.69,0,*5F
1507482335.61,35256,10.5,72966.8,-3.77,-4.61,-4.69,0,*5C
1507482336.81,35257,10.44,72960.5,-3.79,-4.61,-4.61,0,*5B
1507482338.05,35258,10.44,72964.5,-3.77,-4.61,-4.73,0,*59
1507482339.25,35259,10.5,72966.8,-3.79,-4.61,-4.61,0,*55
1507482340.45,35260,10.44,72968.3,-3.79,-4.61,-4.61,0,*5F
1507482341.7,35261,10.5,72970.3,-3.77,-4.61,-4.69,0,*58
1507482342.89,35262,10.44,72960.8,-3.79,-4.53,-4.61,0,*5C
1507482344.12,35263,10.44,72968.3,-3.77,-4.57,-4.61,0,*57
1507482345.34,35264,10.44,72978.5,-3.77,-4.57,-4.61,0,*50
1507482346.57,35265,10.44,72980.8,-3.77,-4.57,-4.61,0,*51
1507482347.77,35266,10.44,72972.5,-3.79,-4.57,-4.61,0,*5C
1507482348.97,35267,10.5,72966.3,-3.79,-4.57,-4.61,0,*5D
1507482350.21,35268,10.5,72966.3,-3.77,-4.61,-4.73,0,*5A
1507482351.46,35269,10.44,72964.8,-3.77,-4.61,-4.81,0,*56
1507482352.72,35270,10.5,72972.8,-3.77,-4.69,-4.73,0,*5B
1507482353.96,35271,10.44,72970.5,-3.79,-4.69,-4.73,0,*54
1507482355.23,35272,10.44,72968.8,-3.77,-4.69,-4.81,0,*54
1507482356.46,35273,10.44,72974.0,-3.79,-4.69,-4.73,0,*56
1507482357.69,35274,10.5,72978.3,-3.79,-4.61,-4.81,0,*54
1507482358.95,35275,10.44,72982.0,-3.77,-4.69,-4.73,0,*5E
1507482360.21,35276,10.44,72980.0,-3.77,-4.69,-4.73,0,*5D
1507482361.43,35277,10.5,72984.0,-3.79,-4.61,-4.81,0,*57
1507482362.69,35278,10.44,72982.0,-3.77,-4.69,-4.73,0,*53
1507482363.92,35279,10.44,72984.8,-3.79,-4.61,-4.69,0,*5F
1507482365.16,35280,10.5,72984.5,-3.77,-4.61,-4.69,0,*57
1507482366.41,35281,10.44,72982.5,-3.77,-4.61,-4.69,0,*56
1507482367.67,35282,10.5,72984.5,-3.77,-4.69,-4.69,0,*5D
1507482368.91,35283,10.5,72986.3,-3.79,-4.69,-4.73,0,*59
1507482370.13,35284,10.44,72986.5,-3.77,-4.61,-4.61,0,*5B
1507482371.36,35285,10.44,72984.3,-3.79,-4.61,-4.69,0,*5C
1507482372.58,35286,10.44,72994.3,-3.77,-4.61,-4.61,0,*59
1507482373.8,35287,10.44,72994.0,-3.79,-4.61,-4.69,0,*5E
1507482375.0,35288,10.44,72988.5,-3.79,-4.61,-4.61,0,*59
1507482376.22,35289,10.44,72982.5,-3.77,-4.61,-4.61,0,*56
1507482377.42,35290,10.44,72978.3,-3.79,-4.61,-4.61,0,*50
1507482378.64,35291,10.44,72978.8,-3.77,-4.57,-4.61,0,*5A
1507482379.87,35292,10.44,72982.8,-3.77,-4.57,-4.61,0,*59
1507482381.09,35293,10.44,72984.8,-3.79,-4.57,-4.69,0,*5E
1507482382.32,35294,10.44,72986.0,-3.77,-4.61,-4.61,0,*5A
1507482383.54,35295,10.44,72986.3,-3.79,-4.61,-4.69,0,*5D
1507482384.78,35296,10.5,72986.3,-3.79,-4.69,-4.69,0,*56
1507482386.02,35297,10.44,72972.8,-3.77,-4.61,-4.73,0,*5A
1507482387.29,35298,10.44,72970.3,-3.77,-4.69,-4.81,0,*50
1507482388.53,35299,10.44,72978.0,-3.77,-4.61,-4.73,0,*54
1507482389.79,35300,10.44,72976.8,-3.77,-4.69,-4.69,0,*56
1507482391.04,35301,10.5,72980.3,-3.77,-4.61,-4.69,0,*5F
1507482392.29,35302,10.44,72982.5,-3.77,-4.61,-4.69,0,*5C
1507482393.53,35303,10.44,72986.3,-3.77,-4.61,-4.69,0,*5D
1507482394.78,35304,10.44,72982.5,-3.77,-4.61,-4.69,0,*5A
1507482396.03,35305,10.5,72988.3,-3.77,-4.61,-4.69,0,*5B
1507482397.27,35306,10.44,72976.3,-3.77,-4.61,-4.69,0,*58
1507482398.52,35307,10.44,72978.3,-3.77,-4.61,-4.69,0,*59
1507482399.74,35308,10.44,72974.5,-3.79,-4.57,-4.69,0,*5D
1507482401.01,35309,10.44,72972.5,-3.77,-4.69,-4.69,0,*5F
1507482402.25,35310,10.44,72970.8,-3.77,-4.61,-4.69,0,*5F
1507482403.5,35311,10.44,72968.3,-3.77,-4.61,-4.69,0,*5E
1507482404.72,35312,10.44,72968.8,-3.77,-4.61,-4.61,0,*55
1507482405.94,35313,10.5,72968.5,-3.79,-4.61,-4.69,0,*52
1507482407.17,35314,10.44,72970.3,-3.79,-4.61,-4.69,0,*55
1507482408.41,35315,10.5,72970.0,-3.77,-4.61,-4.69,0,*5A
1507482409.66,35316,10.44,72972.8,-3.77,-4.61,-4.69,0,*59
1507482410.91,35317,10.44,72966.8,-3.77,-4.61,-4.69,0,*58
1507482412.17,35318,10.44,72960.0,-3.77,-4.69,-4.73,0,*54
1507482413.43,35319,10.44,72962.3,-3.77,-4.69,-4.81,0,*58
1507482414.7,35320,10.44,72952.8,-3.77,-4.69,-4.73,0,*5F
1507482415.94,35321,10.44,72960.0,-3.79,-4.81,-4.73,0,*56
1507482417.18,35322,10.44,72966.3,-3.79,-4.69,-4.81,0,*5E
1507482418.42,35323,10.44,72968.3,-3.79,-4.73,-4.81,0,*54
1507482419.66,35324,10.44,72974.8,-3.79,-4.69,-4.69,0,*5E
1507482420.88,35325,10.44,72976.5,-3.79,-4.61,-4.73,0,*5C
1507482422.12,35326,10.44,72974.5,-3.79,-4.69,-4.81,0,*5A
1507482423.37,35327,10.5,72980.3,-3.77,-4.61,-4.73,0,*50
1507482424.63,35328,10.44,72976.8,-3.77,-4.69,-4.73,0,*57
1507482425.87,35329,10.44,72972.5,-3.79,-4.69,-4.81,0,*55
1507482427.09,35330,10.44,72974.5,-3.79,-4.61,-4.73,0,*58
1507482428.33,35331,10.5,72980.8,-3.79,-4.73,-4.73,0,*5A
1507482429.57,35332,10.44,72976.0,-3.79,-4.81,-4.85,0,*5D
1507482430.81,35333,10.5,72976.5,-3.79,-4.69,-4.73,0,*53
1507482432.06,35334,10.44,72972.3,-3.77,-4.61,-4.73,0,*52
1507482433.28,35335,10.44,72968.5,-3.79,-4.61,-4.69,0,*56
1507482434.5,35336,10.44,72964.8,-3.79,-4.61,-4.69,0,*55
1507482435.75,35337,10.44,72958.0,-3.77,-4.61,-4.69,0,*5A
1507482436.99,35338,10.44,72962.0,-3.77,-4.61,-4.69,0,*55
1507482438.21,35339,10.44,72954.5,-3.79,-4.61,-4.73,0,*51
1507482439.45,35340,10.44,72954.5,-3.79,-4.69,-4.73,0,*57
1507482440.65,35341,10.44,72952.5,-3.79,-4.61,-4.61,0,*5D
1507482441.85,35342,10.44,72956.0,-3.79,-4.57,-4.61,0,*5B
1507482443.05,35343,10.44,72960.3,-3.79,-4.57,-4.61,0,*5A
1507482444.25,35344,10.44,72964.5,-3.79,-4.57,-4.61,0,*5D
1507482445.47,35345,10.5,72968.3,-3.77,-4.53,-4.61,0,*56
1507482446.67,35346,10.44,72970.5,-3.79,-4.57,-4.61,0,*5F
1507482447.87,35347,10.44,72974.8,-3.79,-4.57,-4.61,0,*5E
1507482449.09,35348,10.44,72968.8,-3.79,-4.61,-4.69,0,*5C
1507482450.32,35349,10.44,72970.8,-3.79,-4.61,-4.69,0,*5D
1507482451.54,35350,10.44,72974.8,-3.77,-4.61,-4.61,0,*53
1507482452.74,35351,10.44,72976.3,-3.79,-4.61,-4.61,0,*5C
1507482453.94,35352,10.44,72978.0,-3.79,-4.57,-4.61,0,*5A
1507482455.16,35353,10.44,72976.0,-3.77,-4.61,-4.61,0,*50
1507482456.36,35354,10.44,72980.5,-3.79,-4.61,-4.61,0,*59
1507482457.56,35355,10.44,72982.3,-3.79,-4.57,-4.61,0,*5D
1507482458.78,35356,10.44,72976.8,-3.79,-4.57,-4.69,0,*56
1507482459.99,35357,10.44,72972.3,-3.79,-4.57,-4.61,0,*5F
1507482461.21,35358,10.44,72972.5,-3.77,-4.57,-4.61,0,*5E
1507482462.41,35359,10.5,72974.8,-3.79,-4.57,-4.61,0,*51
1507482463.61,35360,10.44,72972.0,-3.79,-4.53,-4.61,0,*5F
1507482464.8,35361,10.44,72976.8,-3.79,-4.53,-4.61,0,*5E
1507482466.0,35362,10.5,72978.5,-3.79,-4.53,-4.61,0,*5D
1507482467.2,35363,10.44,72978.0,-3.79,-4.57,-4.61,0,*58
1507482468.44,35364,10.44,72978.0,-3.79,-4.69,-4.69,0,*5A
1507482469.69,35365,10.44,72976.0,-3.77,-4.61,-4.81,0,*5B
1507482470.95,35366,10.44,72972.5,-3.77,-4.69,-4.81,0,*50
1507482472.21,35367,10.44,72968.3,-3.77,-4.69,-4.73,0,*5C
1507482473.43,35368,10.44,72972.8,-3.79,-4.61,-4.73,0,*55
1507482474.69,35369,10.44,72974.8,-3.77,-4.69,-4.73,0,*52
1507482475.92,35370,10.44,72972.5,-3.79,-4.61,-4.69,0,*57
1507482477.16,35371,10.44,72970.0,-3.79,-4.69,-4.81,0,*58
1507482478.42,35372,10.44,72966.5,-3.77,-4.69,-4.73,0,*58
1507482479.66,35373,10.44,72964.5,-3.79,-4.69,-4.81,0,*5A
1507482480.88,35374,10.44,72968.3,-3.79,-4.61,-4.81,0,*55
1507482482.13,35375,10.44,72964.0,-3.77,-4.61,-4.69,0,*5C
1507482483.35,35376,10.44,72970.3,-3.77,-4.61,-4.61,0,*57
1507482484.57,35377,10.44,72972.8,-3.77,-4.61,-4.61,0,*56
1507482485.82,35378,10.44,72970.3,-3.77,-4.61,-4.73,0,*5A
1507482487.06,35379,10.44,72964.5,-3.79,-4.69,-4.81,0,*50
1507482488.3,35380,10.44,72964.5,-3.79,-4.69,-4.81,0,*56
1507482489.54,35381,10.44,72966.5,-3.79,-4.69,-4.73,0,*5A
1507482490.76,35382,10.44,72956.5,-3.79,-4.61,-4.81,0,*5C
1507482491.98,35383,10.44,72964.3,-3.79,-4.61,-4.81,0,*5D
1507482493.2,35384,10.44,72970.3,-3.79,-4.61,-4.73,0,*57
1507482494.44,35385,10.44,72974.5,-3.77,-4.61,-4.73,0,*58
1507482495.67,35386,10.5,72978.8,-3.77,-4.57,-4.61,0,*5D
1507482496.87,35387,10.5,72972.3,-3.79,-4.57,-4.61,0,*52
1507482498.07,35388,10.44,72966.5,-3.79,-4.57,-4.61,0,*5D
1507482499.3,35389,10.44,72966.3,-3.79,-4.57,-4.69,0,*54
1507482500.49,35390,10.44,72966.8,-3.79,-4.53,-4.61,0,*50
1507482501.69,35391,10.44,72974.5,-3.79,-4.57,-4.61,0,*55
1507482502.9,35392,10.44,72974.5,-3.79,-4.57,-4.61,0,*56
1507482504.12,35393,10.44,72974.8,-3.79,-4.57,-4.69,0,*5F
1507482505.32,35394,10.44,72972.5,-3.79,-4.57,-4.61,0,*50
1507482506.55,35395,10.44,72974.8,-3.77,-4.57,-4.57,0,*5A
1507482507.74,35396,10.44,72974.3,-3.79,-4.53,-4.57,0,*53
1507482508.97,35397,10.44,72984.0,-3.77,-4.57,-4.61,0,*5D
1507482510.17,35398,10.44,72982.3,-3.79,-4.53,-4.61,0,*58
1507482511.42,35399,10.44,72982.0,-3.77,-4.57,-4.69,0,*5B
1507482512.62,35400,10.44,72984.8,-3.79,-4.57,-4.61,0,*5A
1507482513.84,35401,10.44,72986.3,-3.77,-4.61,-4.61,0,*50
1507482515.06,35402,10.44,72978.5,-3.79,-4.61,-4.69,0,*55
1507482516.28,35403,10.44,72968.5,-3.79,-4.61,-4.69,0,*54